• MPC Preparation (Info)

  • MPEC 2023-F108 : 2013 LU35

    The following Minor Planet Electronic Circular may be linked-to from your own Web pages, but must not otherwise be redistributed electronically.

    A form allowing access to any MPEC is at the bottom of this page.


    Read MPEC 2023-F107 Read MPEC 2023-F109


    M.P.E.C. 2023-F108                               Issued 2023 March 22, 20:24 UT
    
         The Minor Planet Electronic Circulars contain information on unusual
             minor planets, routine data on comets and natural satellites,
             and occasional editorial announcements.  They are published
        on behalf of Division F of the International Astronomical Union by the
              Minor Planet Center, Smithsonian Astrophysical Observatory,
                              Cambridge, MA 02138, U.S.A.
    			  
                 Prepared using the Tamkin Foundation Computer Network
    
                                  MPC@CFA.HARVARD.EDU
                URL https://www.minorplanetcenter.net/    ISSN 1523-6714
    
                                    2013 LU35                                
    
    
    Additional Observations:
         K13L35U 3C2014 06 25.33943 18 43 56.021-20 28 07.05         25.0 rVEF108266
         K13L35U 3C2014 06 25.45479 18 43 55.460-20 28 07.64         25.0 rVEF108266
         K13L35U 3C2014 06 25.56643 18 43 54.916-20 28 08.19         25.0 rVEF108266
         K13L35U 3C2014 06 27.34219 18 43 46.408-20 28 17.26         25.3 rVEF108266
         K13L35U 3C2014 06 27.36877 18 43 46.278-20 28 17.40         25.3 rVEF108266
         K13L35U 3C2014 06 27.39518 18 43 46.149-20 28 17.54         25.3 rVEF108266
         K13L35U 3C2017 07 21.24888 18 57 21.747-20 18 27.53         24.8 rVEF108266
         K13L35U 3C2017 07 21.41964 18 57 20.952-20 18 28.86         24.8 rVEF108266
         K13L35U 3C2017 07 21.54551 18 57 20.367-20 18 29.80         24.8 rVEF108266
         K13L35U 3C2020 05 30.43935 19 16 30.034-19 54 46.46         25.6 rVEF108266
         K13L35U 3C2020 05 30.53044 19 16 29.709-19 54 46.92         25.6 rVEF108266
         K13L35U 3C2020 05 30.61862 19 16 29.393-19 54 47.34         25.6 rVEF108266
         K13L35U 3C2020 06 01.43269 19 16 22.961-19 54 56.31         26.1 rVEF108266
         K13L35U 3C2020 06 01.47325 19 16 22.812-19 54 56.53         26.1 rVEF108266
         K13L35U 3C2020 06 01.60571 19 16 22.322-19 54 57.21         26.1 rVEF108266
         K13L35U 3C2020 06 20.45583 19 15 05.452-19 56 57.53         25.6 rVEF108266
         K13L35U 3C2020 06 20.52860 19 15 05.121-19 56 58.07         25.6 rVEF108266
         K13L35U 3C2020 06 20.62233 19 15 04.696-19 56 58.76         25.6 rVEF108266
         K13L35U 3C2020 06 22.44948 19 14 56.504-19 57 12.62         25.6 rVEF108266
         K13L35U 3C2020 06 22.52092 19 14 56.175-19 57 13.16         25.6 rVEF108266
         K13L35U 3C2020 06 22.59118 19 14 55.853-19 57 13.69         25.6 rVEF108266
         K13L35U 3C2020 06 25.44823 19 14 42.855-19 57 36.08         25.6 rVEF108266
         K13L35U 3C2020 06 25.53213 19 14 42.463-19 57 36.75         25.6 rVEF108266
         K13L35U 3C2020 06 25.61487 19 14 42.077-19 57 37.39         25.6 rVEF108266
         K13L35U 3C2020 08 13.24332 19 11 04.122-20 04 50.57         25.6 rVEF108266
         K13L35U 3C2020 08 13.33331 19 11 03.778-20 04 51.37         25.6 rVEF108266
         K13L35U 3C2020 08 13.42301 19 11 03.436-20 04 52.14         25.6 rVEF108266
    
    Observer details:
    266 New Horizons KBO Search-Subaru.  Observers J. J. Kavelaars, W. E. Fraser,
        S. B. Porter, T. Terai, A. Verbiscer, F. Yoshida.  Measurers R. Leiva, J.
        Spencer, T. Lauer, S. Benecchi, K. Singer, F. Glass, M. Skrutskie, A.
        Alexander, P. Hong, H. Reitsema, E. Lin, P. Lykawka, T. Ito, R. Marschall,
        A. Simpson, M. Banks, R. Ishimaru, T. Holt, M. Postman, C. Olkin, F.
        Yoshida, K. Arimatsu, V. Bray, A. Stern, R. Rufu, H. Throop, C. Ferrell,
        P. Quirico, P. Johnson, R. Elmaarry, D. Gerdes, J. Nunez, P. Schenk, K.
        Runyon, N. Martin, A. Steffl, V. Klein, M. Horanyi, C. Hersman, A. Roos,
        J. Stansberry, A. Rhodens, S. Gwyn.  8.2m Subaru Telescope + CCD.
    
    Orbital elements:
    2013 LU35                                                                       
    Epoch 2023 Feb. 25.0 TT = JDT 2460000.5                 Alexandersen            
    M 111.03864              (2000.0)            P               Q                  
    n   0.00340022     Peri.   14.16223     -0.98830289     -0.15113609             
    a  43.7990358      Node   157.11498     +0.13432415     -0.92595490             
    e   0.0775958      Incl.    3.00379     +0.07221089     -0.34607139             
    P 290              H    9.18          G   0.15           U   4                  
    Residuals in seconds of arc
    130605 268  0.1-  0.1-    130927 250  0.2-  0.0     200530 266  0.0   0.0
    130605 268  0.0   0.0     130927 250  0.2-  0.1+    200530 266  0.0   0.0
    130605 268  0.3+  0.2-    130927 250  0.1+  0.1+    200601 266  0.0   0.0
    130606 268  0.1+  0.2-    130927 250  0.1+  0.2+    200601 266  0.0   0.0
    130606 268  0.0   0.1-    130928 250  0.3-  0.1+    200601 266  0.0   0.0
    130606 268  0.0   0.0     130928 250  0.1-  0.1+    200620 266  0.0   0.0
    130609 268  0.0   0.1-    130928 250  0.1+  0.1+    200620 266  0.0   0.0
    130609 268  0.1-  0.1+    130928 250  0.1+  0.2+    200620 266  0.0   0.0
    130609 268  0.1-  0.1-    140625 266  0.0   0.2-    200622 266  0.0   0.0
    130609 268  0.3-  0.0     140625 266  0.0   0.1-    200622 266  0.1-  0.0
    130609 268  0.0   0.1-    140625 266  0.0   0.1-    200622 266  0.0   0.0
    130609 268  0.0   0.1-    140627 266  0.0   0.2-    200625 266  0.0   0.0
    130609 268  0.0   0.1-    140627 266  0.0   0.1-    200625 266  0.0   0.0
    130705 266  0.0   0.7+    140627 266  0.0   0.1-    200625 266  0.0   0.0
    130706 266  0.1+  0.1+    170721 266  0.0   0.1-    200813 266  0.0   0.0
    130706 266  0.1+  0.0     170721 266  0.0   0.1-    200813 266  0.0   0.0
    130706 266  0.2+  0.1+    170721 266  0.0   0.1-    200813 266  0.0   0.0
    130907 568  0.1+  0.1-    200530 266  0.0   0.0
    
    Ephemeris:
    2013 LU35                a,e,i = 43.80, 0.08, 3                  q = 40.4004
    Date    TT    R. A. (2000) Decl.     Delta      r    Elong.  Phase     V
    2023 02 20    19 29 57.7 -19 39 02  45.9945 45.2380    39.7     0.8    25.9
    ...
    2023 03 07    19 31 05.6 -19 36 08  45.8102 45.2406    54.5     1.0    25.9
    ...
    2023 03 15    19 31 35.2 -19 34 45  45.6953 45.2420    62.3     1.1    25.9
    ...
    2023 03 21    19 31 54.0 -19 33 50  45.6033 45.2431    68.2     1.2    25.9
    2023 03 22    19 31 56.9 -19 33 41  45.5876 45.2433    69.2     1.2    25.9
    2023 03 23    19 31 59.6 -19 33 33  45.5717 45.2434    70.2     1.2    25.9
    ...
    2023 03 29    19 32 14.2 -19 32 46  45.4746 45.2445    76.1     1.2    25.9
    ...
    2023 04 06    19 32 28.7 -19 31 53  45.3415 45.2459    83.9     1.3    25.9
    ...
    2023 04 21    19 32 39.8 -19 30 50  45.0885 45.2486    98.5     1.3    25.9
    
    M. P. C. Staff               (C) Copyright 2023 MPC           M.P.E.C. 2023-F108
    


    Read MPEC 2023-F107 Read MPEC 2023-F109


    MPEC number:

    Enter an MPEC number in one of the following forms:

    • 1997-B01 (the full form)
    • J97B01 (the packed version of the full form)
    • B01 (the abbreviated form)